Regional Weather Roundup
Issued by NWS

Home | Current Version | Previous Version | Graphics & Text | Print | Product List | Glossary On
Versions: 1 2 3 4 5 6 7 8 9 10 11 12 13 14 15 16 17 18 19 20 21 22 23 24 25 26 27 28 29 30 31 32 33 34 35 36 37 38 39 40 41 42 43 44 45 46 47 48 49 50
000
ASUS43 KLMK 280702
RWRKY
KENTUCKY REGIONAL WEATHER ROUNDUP
NATIONAL WEATHER SERVICE LOUISVILLE KY
300 AM EDT THU JUL 28 2016

NOTE "FAIR" INDICATES FEW OR NO CLOUDS BELOW 12,000 FEET
WITH NO SIGNIFICANT WEATHER AND/OR OBSTRUCTIONS TO VISIBILITY.

KYZ001>023-026-027-061>063-070>075-280800-
WESTERN AND SOUTH CENTRAL KENTUCKY

CITY           SKY/WX    TMP DP  RH WIND       PRES   REMARKS
PADUCAH        LGT RAIN  74  71  91 NW3       29.91R
HENDERSON      NOT AVBL
OWENSBORO      LGT RAIN  73  73 100 CALM      29.93S
HOPKINSVILLE   DRIZZLE   73  72  99 E6        29.92F
BOWLING GREEN  LGT RAIN  75  73  93 CALM      29.93F
GLASGOW        NOT AVBL
$$

KYZ024-025-028>034-038-045-046-053-280800-
NORTH CENTRAL KENTUCKY

CITY           SKY/WX    TMP DP  RH WIND       PRES   REMARKS
LOUISVILLE/SDF TSTM      77  74  90 CALM      29.91F FOG
LOUISVILLE/LOU CLOUDY    77  74  90 NW5       29.92F FOG
FORT KNOX      RAIN      73  73  98 S7        29.92F FOG
$$

KYZ035>037-039>044-047>052-055>060-089>105-280800-
NORTHEAST KENTUCKY

CITY           SKY/WX    TMP DP  RH WIND       PRES   REMARKS
LEXINGTON      CLOUDY    76  71  85 SW5       29.95F
COVINGTON      CLOUDY    77  75  93 CALM      29.93F
FRANKFORT      LGT RAIN  74  70  87 CALM      29.93S FOG
$$

KYZ054-064>069-076>088-106>120-280800-
SOUTHEAST KENTUCKY

CITY           SKY/WX    TMP DP  RH WIND       PRES   REMARKS
JACKSON        CLOUDY    71  69  93 CALM      29.99R FOG
LONDON         CLOUDY    70  67  90 S3        29.98F
SOMERSET       CLOUDY    70  70 100 SE3       29.97F
MIDDLESBORO    CLOUDY    71  71 100 CALM      30.02S
MONTICELLO     CLOUDY   N/A N/A N/A NE6       29.98F
$$




USA.gov is the U.S. government's official web portal to all federal, state and local government web resources and services.